Location: Newark
(10.3333°N, 37.7167°E)
Time: 21:59:51
(UTC+00:00)

STARLINK-1074 - Pass Details

Date: 04 February 2020
Orbit: 349 x 351 km, 53.0° (Epoch: 20 February)

Event Time Altitude Azimuth Distance (km) Brightness Sun altitude
Rises 17:12:09 0° 315° (NW) 2,158 7.1 -24.1°
Reaches altitude 10° 17:14:14 10° 306° (NW) 1,315 6.0 -24.6°
Enters shadow 17:15:06 17° 298° (WNW) 986 5.4 -24.8°
